Location: Praha
(50.0830°N, 14.4670°E)
Time: 17:27:40
(UTC+02:00)

ISS - Pass Details

Date: 24 May 2020
Orbit: 417 x 420 km, 51.6° (Epoch: 26 May)

Event Time Altitude Azimuth Distance (km) Brightness Sun altitude
Rises 23:55:15 0° 287° (WNW) 2,368 0.5 -17.7°
Reaches altitude 10° 23:57:22 10° 284° (WNW) 1,503 -0.6 -17.8°
Maximum altitude 00:00:43 65° 203° (SSW) 466 -3.8 -17.9°
Enters shadow 00:00:59 61° 171° (S) 480 -3.8 -18.0°
